Time,TemperatureF,DewpointF,PressureIn,WindDirection,WindDirectionDegrees,WindSpeedMPH,WindSpeedGustMPH,Humidity,HourlyPrecipIn,Conditions,Clouds,dailyrainin,SolarRadiationWatts/m^2,SoftwareType,DateUTC
2013-01-23 00:03:00,27.0,8.0,-100.00,NW,306,3.0,5.0,44,0.00,,,0.00,0.000000,,2013-01-23 06:03:00,
2013-01-23 00:33:00,27.0,9.0,-100.00,NNW,336,4.0,6.0,45,0.00,,,0.00,0.000000,,2013-01-23 06:33:00,
2013-01-23 00:43:00,27.0,9.0,-100.00,NNW,336,4.0,6.0,45,0.00,,,0.00,0.000000,,2013-01-23 06:43:00,
2013-01-23 00:53:00,27.0,9.0,-100.00,NNW,336,4.0,6.0,45,0.00,,,0.00,0.000000,,2013-01-23 06:53:00,
2013-01-23 01:02:00,27.0,9.0,-100.00,NNW,336,4.0,6.0,45,0.00,,,0.00,0.000000,,2013-01-23 07:02:00,
2013-01-23 01:33:00,27.0,8.0,-100.00,NW,321,2.0,6.0,44,0.00,,,0.00,0.000000,,2013-01-23 07:33:00,
2013-01-23 01:43:00,27.0,8.0,-100.00,NW,321,2.0,6.0,44,0.00,,,0.00,0.000000,,2013-01-23 07:43:00,
2013-01-23 01:53:00,27.0,8.0,-100.00,NW,321,2.0,6.0,44,0.00,,,0.00,0.000000,,2013-01-23 07:53:00,
2013-01-23 02:02:00,27.0,8.0,-100.00,NW,321,2.0,6.0,44,0.00,,,0.00,0.000000,,2013-01-23 08:02:00,
2013-01-23 02:33:00,27.0,9.0,-100.00,NNW,329,2.0,5.0,46,0.00,,,0.00,0.000000,,2013-01-23 08:33:00,
2013-01-23 02:43:00,27.0,9.0,-100.00,NNW,329,2.0,5.0,46,0.00,,,0.00,0.000000,,2013-01-23 08:43:00,
2013-01-23 02:53:00,27.0,9.0,-100.00,NNW,329,2.0,5.0,46,0.00,,,0.00,0.000000,,2013-01-23 08:53:00,
2013-01-23 03:03:00,27.0,9.0,-100.00,NNW,329,2.0,5.0,46,0.00,,,0.00,0.000000,,2013-01-23 09:03:00,
2013-01-23 03:33:00,27.0,9.0,-100.00,East,94,0.0,5.0,46,0.00,,,0.00,0.000000,,2013-01-23 09:33:00,
2013-01-23 03:43:00,27.0,9.0,-100.00,East,94,0.0,5.0,46,0.00,,,0.00,0.000000,,2013-01-23 09:43:00,
2013-01-23 03:53:00,27.0,9.0,-100.00,East,94,0.0,5.0,46,0.00,,,0.00,0.000000,,2013-01-23 09:53:00,
2013-01-23 04:03:00,27.0,9.0,-100.00,East,94,0.0,5.0,46,0.00,,,0.00,0.000000,,2013-01-23 10:03:00,
2013-01-23 04:33:00,27.0,9.0,-100.00,WNW,296,0.0,0.0,46,0.00,,,0.00,0.000000,,2013-01-23 10:33:00,
2013-01-23 04:43:00,27.0,9.0,-100.00,WNW,296,0.0,0.0,46,0.00,,,0.00,0.000000,,2013-01-23 10:43:00,
2013-01-23 04:53:00,27.0,9.0,-100.00,WNW,296,0.0,0.0,46,0.00,,,0.00,0.000000,,2013-01-23 10:53:00,
2013-01-23 05:03:00,27.0,9.0,-100.00,WNW,296,0.0,0.0,46,0.00,,,0.00,0.000000,,2013-01-23 11:03:00,
2013-01-23 05:34:00,27.0,9.0,-100.00,NW,315,1.0,3.0,47,0.00,,,0.00,0.000000,,2013-01-23 11:34:00,
2013-01-23 05:43:00,27.0,9.0,-100.00,NW,315,1.0,3.0,47,0.00,,,0.00,0.000000,,2013-01-23 11:43:00,
2013-01-23 05:53:00,27.0,9.0,-100.00,NW,315,1.0,3.0,47,0.00,,,0.00,0.000000,,2013-01-23 11:53:00,
2013-01-23 06:03:00,27.0,9.0,-100.00,NW,315,1.0,3.0,47,0.00,,,0.00,0.000000,,2013-01-23 12:03:00,
2013-01-23 06:33:00,28.0,11.0,-100.00,WNW,286,0.0,3.0,48,0.00,,,0.00,0.000000,,2013-01-23 12:33:00,
2013-01-23 06:43:00,28.0,11.0,-100.00,WNW,286,0.0,3.0,48,0.00,,,0.00,0.000000,,2013-01-23 12:43:00,
2013-01-23 06:53:00,28.0,11.0,-100.00,WNW,286,0.0,3.0,48,0.00,,,0.00,0.000000,,2013-01-23 12:53:00,
2013-01-23 07:04:00,28.0,11.0,-100.00,WNW,286,0.0,3.0,48,0.00,,,0.00,0.000000,,2013-01-23 13:04:00,
2013-01-23 07:34:00,27.0,12.0,-100.00,SSW,200,0.0,0.0,53,0.00,,,0.00,2.000000,,2013-01-23 13:34:00,
2013-01-23 07:43:00,27.0,12.0,-100.00,SSW,200,0.0,0.0,53,0.00,,,0.00,2.000000,,2013-01-23 13:43:00,
2013-01-23 07:53:00,27.0,12.0,-100.00,SSW,200,0.0,0.0,53,0.00,,,0.00,2.000000,,2013-01-23 13:53:00,
2013-01-23 08:03:00,27.0,12.0,-100.00,SSW,200,0.0,0.0,53,0.00,,,0.00,2.000000,,2013-01-23 14:03:00,
2013-01-23 08:33:00,28.0,13.0,-100.00,South,172,3.0,4.0,53,0.00,,,0.00,42.000000,,2013-01-23 14:33:00,
2013-01-23 08:43:00,28.0,13.0,-100.00,South,172,3.0,4.0,53,0.00,,,0.00,42.000000,,2013-01-23 14:43:00,
2013-01-23 08:53:00,28.0,13.0,-100.00,South,172,3.0,4.0,53,0.00,,,0.00,42.000000,,2013-01-23 14:53:00,
2013-01-23 09:03:00,28.0,13.0,-100.00,South,172,3.0,4.0,53,0.00,,,0.00,42.000000,,2013-01-23 15:03:00,
2013-01-23 09:33:00,33.0,15.0,-100.00,SW,220,2.0,5.0,47,0.00,,,0.00,195.000000,,2013-01-23 15:33:00,
2013-01-23 09:43:00,33.0,15.0,-100.00,SW,220,2.0,5.0,47,0.00,,,0.00,195.000000,,2013-01-23 15:43:00,
2013-01-23 09:53:00,33.0,15.0,-100.00,SW,220,2.0,5.0,47,0.00,,,0.00,195.000000,,2013-01-23 15:53:00,
2013-01-23 10:03:00,33.0,15.0,-100.00,SW,220,2.0,5.0,47,0.00,,,0.00,195.000000,,2013-01-23 16:03:00,
2013-01-23 10:33:00,39.0,16.0,-100.00,SW,232,4.0,9.0,39,0.00,,,0.00,435.000000,,2013-01-23 16:33:00,
2013-01-23 10:43:00,39.0,16.0,-100.00,SW,232,4.0,9.0,39,0.00,,,0.00,435.000000,,2013-01-23 16:43:00,
2013-01-23 10:53:00,39.0,16.0,-100.00,SW,232,4.0,9.0,39,0.00,,,0.00,435.000000,,2013-01-23 16:53:00,
2013-01-23 11:03:00,39.0,16.0,-100.00,SW,232,4.0,9.0,39,0.00,,,0.00,435.000000,,2013-01-23 17:03:00,
2013-01-23 11:34:00,40.0,15.0,-100.00,West,281,7.0,14.0,36,0.00,,,0.00,541.000000,,2013-01-23 17:34:00,
2013-01-23 11:43:00,40.0,15.0,-100.00,West,281,7.0,14.0,36,0.00,,,0.00,541.000000,,2013-01-23 17:43:00,
2013-01-23 11:53:00,40.0,15.0,-100.00,West,281,7.0,14.0,36,0.00,,,0.00,541.000000,,2013-01-23 17:53:00,
2013-01-23 12:03:00,40.0,15.0,-100.00,West,281,7.0,14.0,36,0.00,,,0.00,541.000000,,2013-01-23 18:03:00,
2013-01-23 12:33:00,43.0,19.0,-100.00,WSW,247,6.0,14.0,37,0.00,,,0.00,589.000000,,2013-01-23 18:33:00,
2013-01-23 12:44:00,43.0,19.0,-100.00,WSW,247,6.0,14.0,37,0.00,,,0.00,589.000000,,2013-01-23 18:44:00,
2013-01-23 12:53:00,43.0,19.0,-100.00,WSW,247,6.0,14.0,37,0.00,,,0.00,589.000000,,2013-01-23 18:53:00,
2013-01-23 13:03:00,43.0,19.0,-100.00,WSW,247,6.0,14.0,37,0.00,,,0.00,589.000000,,2013-01-23 19:03:00,
2013-01-23 13:33:00,45.0,20.0,-100.00,West,262,5.0,12.0,37,0.00,,,0.00,570.000000,,2013-01-23 19:33:00,
2013-01-23 13:43:00,45.0,20.0,-100.00,West,262,5.0,12.0,37,0.00,,,0.00,570.000000,,2013-01-23 19:43:00,
2013-01-23 13:53:00,45.0,20.0,-100.00,West,262,5.0,12.0,37,0.00,,,0.00,570.000000,,2013-01-23 19:53:00,
2013-01-23 14:03:00,45.0,20.0,-100.00,West,262,5.0,12.0,37,0.00,,,0.00,570.000000,,2013-01-23 20:03:00,
2013-01-23 15:34:00,46.0,23.0,-100.00,SW,231,8.0,16.0,40,-99.99,,,0.00,281.000000,,2013-01-23 21:34:00,
2013-01-23 15:43:00,46.0,23.0,-100.00,SW,231,8.0,16.0,40,-99.99,,,0.00,281.000000,,2013-01-23 21:43:00,
2013-01-23 15:53:00,46.0,23.0,-100.00,SW,231,8.0,16.0,40,-99.99,,,0.00,281.000000,,2013-01-23 21:53:00,
2013-01-23 16:03:00,46.0,23.0,-100.00,SW,231,8.0,16.0,40,-99.99,,,0.00,281.000000,,2013-01-23 22:03:00,
2013-01-23 16:33:00,44.0,23.0,-100.00,WSW,239,8.0,16.0,44,0.00,,,0.00,131.000000,,2013-01-23 22:33:00,
2013-01-23 16:43:00,44.0,23.0,-100.00,WSW,239,8.0,16.0,44,0.00,,,0.00,131.000000,,2013-01-23 22:43:00,
2013-01-23 16:53:00,44.0,23.0,-100.00,WSW,239,8.0,16.0,44,0.00,,,0.00,131.000000,,2013-01-23 22:53:00,
2013-01-23 17:03:00,44.0,23.0,-100.00,WSW,239,8.0,16.0,44,0.00,,,0.00,131.000000,,2013-01-23 23:03:00,
2013-01-23 17:33:00,43.0,25.0,-100.00,SW,236,6.0,14.0,48,0.00,,,0.00,18.000000,,2013-01-23 23:33:00,
2013-01-23 17:43:00,43.0,25.0,-100.00,SW,236,6.0,14.0,48,0.00,,,0.00,18.000000,,2013-01-23 23:43:00,
2013-01-23 17:53:00,43.0,25.0,-100.00,SW,236,6.0,14.0,48,0.00,,,0.00,18.000000,,2013-01-23 23:53:00,
2013-01-23 18:03:00,43.0,25.0,-100.00,SW,236,6.0,14.0,48,0.00,,,0.00,18.000000,,2013-01-24 00:03:00,
2013-01-23 18:33:00,42.0,26.0,-100.00,SW,236,6.0,12.0,53,0.00,,,0.00,1.000000,,2013-01-24 00:33:00,
2013-01-23 18:43:00,42.0,26.0,-100.00,SW,236,6.0,12.0,53,0.00,,,0.00,1.000000,,2013-01-24 00:43:00,
2013-01-23 18:53:00,42.0,26.0,-100.00,SW,236,6.0,12.0,53,0.00,,,0.00,1.000000,,2013-01-24 00:53:00,
2013-01-23 19:03:00,42.0,26.0,-100.00,SW,236,6.0,12.0,53,0.00,,,0.00,1.000000,,2013-01-24 01:03:00,
2013-01-23 19:33:00,41.0,27.0,-100.00,WSW,243,7.0,14.0,57,0.00,,,0.00,0.000000,,2013-01-24 01:33:00,
2013-01-23 19:43:00,41.0,27.0,-100.00,WSW,243,7.0,14.0,57,0.00,,,0.00,0.000000,,2013-01-24 01:43:00,
2013-01-23 19:53:00,41.0,27.0,-100.00,WSW,243,7.0,14.0,57,0.00,,,0.00,0.000000,,2013-01-24 01:53:00,
2013-01-23 20:03:00,41.0,27.0,-100.00,WSW,243,7.0,14.0,57,0.00,,,0.00,0.000000,,2013-01-24 02:03:00,
2013-01-23 20:33:00,41.0,28.0,-100.00,WSW,239,7.0,12.0,59,0.00,,,0.00,0.000000,,2013-01-24 02:33:00,
2013-01-23 20:43:00,41.0,28.0,-100.00,WSW,239,7.0,12.0,59,0.00,,,0.00,0.000000,,2013-01-24 02:43:00,
2013-01-23 20:52:00,41.0,28.0,-100.00,WSW,239,7.0,12.0,59,0.00,,,0.00,0.000000,,2013-01-24 02:52:00,
2013-01-23 21:03:00,41.0,28.0,-100.00,WSW,239,7.0,12.0,59,0.00,,,0.00,0.000000,,2013-01-24 03:03:00,
2013-01-23 21:33:00,43.0,31.0,-100.00,West,265,10.0,19.0,63,0.00,,,-99.99,0.000000,,2013-01-24 03:33:00,
2013-01-23 21:43:00,43.0,31.0,-100.00,West,265,10.0,19.0,63,0.00,,,-99.99,0.000000,,2013-01-24 03:43:00,
2013-01-23 21:53:00,43.0,31.0,-100.00,West,265,10.0,19.0,63,0.00,,,-99.99,0.000000,,2013-01-24 03:53:00,
2013-01-23 22:03:00,43.0,31.0,-100.00,West,265,10.0,19.0,63,0.00,,,-99.99,0.000000,,2013-01-24 04:03:00,
2013-01-23 22:33:00,43.0,32.0,-100.00,West,261,9.0,20.0,65,0.00,,,0.00,0.000000,,2013-01-24 04:33:00,
2013-01-23 22:43:00,43.0,32.0,-100.00,West,261,9.0,20.0,65,0.00,,,0.00,0.000000,,2013-01-24 04:43:00,
2013-01-23 22:53:00,43.0,32.0,-100.00,West,261,9.0,20.0,65,0.00,,,0.00,0.000000,,2013-01-24 04:53:00,
2013-01-23 23:03:00,43.0,32.0,-100.00,West,261,9.0,20.0,65,0.00,,,0.00,0.000000,,2013-01-24 05:03:00,
2013-01-23 23:33:00,44.0,34.0,-100.00,WNW,292,7.0,17.0,68,0.00,,,0.00,0.000000,,2013-01-24 05:33:00,
2013-01-23 23:43:00,44.0,34.0,-100.00,WNW,292,7.0,17.0,68,0.00,,,0.00,0.000000,,2013-01-24 05:43:00,
2013-01-23 23:53:00,44.0,34.0,-100.00,WNW,292,7.0,17.0,68,0.00,,,0.00,0.000000,,2013-01-24 05:53:00,